Sacramento International Airport
KSMF : now visible

Airfield :











YOU CAN JOIN US ON...

 
LOGIN :

Register | Disclaimer

   EN    FR    IT 

 









Legend :    VFR   Marginal VFR   IFR   Intensive IFR   Very Intensive IFR
Visi :
Ceiling :
>= 8 km
>= 3000ft
5 to 8 km
1000 to 3000 ft
1500m to 5 km
500 to 1000 ft
800 to 1500m
200 to 500 ft
< 800m
< 200 ft
Symbols :   Thunderstorms  Fog  Heavy snow  Heavy precipitations  Wind > 20 kt






- Airport Elevation : 27 ft
- IATA code : SMF


KSMF - Sacramento International

CURRENT METAR :
  • 160953Z 18007KT 10SM CLR 10/04 A2999 RMK AO2 SLP153 T01000039

EXPIRED METARs :
  • 160853Z 16007KT 10SM CLR 11/03 A3000 RMK AO2 SLP157 T01110033 50004
  • 160753Z 13007KT 10SM CLR 12/06 A3000 RMK AO2 SLP159 T01170056 402440089

TAF KSMF
Valid from the 16 at 06:00 until the 17 at 06:00 UTC


160539Z 1606/1706 17007KT P6SM SKC
FM161900 33008KT P6SM SKC
KZOA FIR / North America



MET'MAP, your aeronautical weather chart ! - Copyright ORBIFLY December 2007 - Disclaimer

ORBIFLY MET'MAP TEAM :

Programming & Development : Alexandra Zaïnal
Concept & original design : Baudouin d'Aumeries
Assistance for programming : Marc-Olivier Méhu
Technical & hardware support : Manuel Goepfert

Contact : metmap@orbifly.com




SOURCES & CREDITS :

   NOAA       Earth
Advisory